www.pogodaiklimat.ru

Погода и климат >> Архив погоды >> Россия >> Приморский край >> Лазо


ПОГОДА в Лазо

  • Прогноз погоды в Лазо
  • Монитор погоды в Лазо

АРХИВ ПОГОДЫ в Лазо

Время (UTC), дата Ветер
(напр.,м/с)
 
Видим.   Явления Облачность Т
(С)
Тd
(С)
f
(%)
Тe
(С)
Тes
(С)
Комфортность P
(гПа)
Po
(гПа)
Тmin
(С)
Tmax
(С)
R
(мм)
R24
(мм)
S
(см)
12 11.06 ЮВ 1 50 км ясно +14.0 +8.8 71 +14 +14 1011.5 982.7
15 11.06 штиль 0 50 км ясно +9.6 +6.9 83 +9 +9 1013.4 984.0
18 11.06 штиль 0 50 км ясно +7.0 +6.1 94 +6 +6 1013.6 984.0
21 11.06 С 1 10 км 10/10 630 м
[St]
+9.1 +8.1 93 +8 +8 1013.4 983.9 +7.0
00 12.06 СЗ 1 20 км 9/9 800 м
[Sc]
+13.3 +9.7 79 +14 +15 1012.4 983.3
03 12.06 ЮЗ 1 50 км 7 баллов +21.0 +9.9 49 +24 +31 комфорт 1009.4 981.3
06 12.06 Ю 2 50 км 10 баллов +23.6 +11.6 47 +25 +25 комфорт 1007.8 980.0
09 12.06 ЮВ 1 50 км 4/0
[Cs]
+18.9 +11.5 62 +21 +22 комфорт 1009.6 981.3 +24.5
12 12.06 В 2 50 км 4/0
[Ci fib]
+11.4 +9.6 89 +10 +10 1010.8 981.6
15 12.06 СВ 1 50 км 10 баллов +10.7 +9.5 92 +10 +10 1011.9 982.7
18 12.06 В 1 50 км 10 баллов +10.6 +9.4 92 +10 +10 1011.9 982.7
21 12.06 штиль 0 10 км 10/10 600 м
[St]
+10.3 +9.3 94 +9 +9 1011.5 982.2 +10.1
00 13.06 Ю 2 50 км 8/8 800 м
[Sc]
+13.8 +9.6 76 +13 +16 1011.1 982.1
03 13.06 ЮЗ 1 50 км 9 баллов +18.8 +11.6 63 +21 +23 комфорт 1009.6 981.3
06 13.06 Ю 2 50 км 9 баллов +21.4 +13.0 59 +24 +25 комфорт 1008.0 980.0
09 13.06 Ю 1 50 км 9/0
[Cs]
+15.3 +11.3 77 +16 +16 1008.6 980.0 +21.6
12 13.06 ЮЗ 1 50 км 10/10 800 м
[Sc]
+12.8 +10.5 86 +13 +13 1009.1 980.1
15 13.06 Ю 1 50 км 10 баллов +12.4 +10.6 89 +12 +12 1008.9 980.0
18 13.06 ЮЗ 1 50 км 10 баллов +12.7 +10.8 88 +13 +13 1008.9 980.0
21 13.06 штиль 0 20 км 10/10 800 м
[Sc]
+13.3 +11.0 86 +13 +13 1007.6 978.7 +12.4
00 14.06 Ю 1 20 км 10/10 800 м
[Sc]
+15.5 +12.2 81 +16 +16 1007.1 978.4
03 14.06 З 1 50 км 10 баллов +17.6 +12.7 73 +19 +19 1007.0 978.7
06 14.06 С 1 50 км 10 баллов +19.2 +13.6 70 +22 +22 комфорт 1005.4 977.3
09 14.06 штиль 0 50 км 10/4 600 м
[Sc As trans Cs]
+20.2 +14.3 69 +22 +22 комфорт 1005.3 977.3 +20.9
12 14.06 ЮВ 1 50 км 10/10 840 м
[Sc]
+16.6 +13.9 84 +17 +17 1005.8 977.3
15 14.06 штиль 0 50 км 10 баллов +14.8 +13.2 90 +14 +14 1007.3 978.7
18 14.06 штиль 0 20 км 10 баллов +13.9 +12.6 92 +13 +13 1006.0 977.3
21 14.06 В 1 20 км 10/10 700 м
[Sc]
+14.1 +12.3 89 +14 +14 1005.5 976.7 +13.5
00 15.06 ЮВ 1 20 км 10/10 720 м
[Sc]
+15.4 +11.8 79 +16 +16 1006.1 977.5
03 15.06 штиль 0 20 км 10 баллов +15.5 +11.9 79 +15 +15 1007.3 978.7
06 15.06 СВ 1 10 км слаб. дождь 10 баллов +15.3 +13.7 90 +16 +16 1005.8 977.3
09 15.06 С 1 4000 м дождь 10/10 300 м
[Frnb Ns]
+12.7 +11.4 92 +13 +13 1007.5 978.7 +16.7 7
12 15.06 штиль 0 10 км слаб. дождь 10/10 600 м
[Frnb Ns]
+11.7 +10.8 94 +11 +11 1006.9 977.8
15 15.06 штиль 0 10 км слаб. дождь 10 баллов +11.0 +10.2 95 +10 +10 1007.7 978.7
18 15.06 С 1 50 км слаб. дождь 10 баллов +10.4 +9.6 95 +10 +10 1006.4 977.3
21 15.06 штиль 0 10 км слаб. дождь 10/10 600 м
[Frnb Ns]
+10.7 +9.9 95 +10 +10 1005.6 976.5 +10.4 10
00 16.06 СЗ 1 10 км слаб. дождь 10/10 600 м
[Frnb Ns]
+12.3 +10.6 89 +12 +12 1005.2 976.2
03 16.06 СЗ 1 50 км 10 баллов +16.0 +9.6 66 +17 +17 1004.4 976.0
06 16.06 СЗ 3 20 км {дождь} 10/10 800 м
[Sc]
+16.4 +9.8 65 +16 +16 1004.4 976.0
09 16.06 С 2 20 км 10/10 800 м
[Sc]
+15.6 +9.9 69 +16 +16 1005.8 977.3 +17.6 2
12 16.06 Ю 1 20 км 10/10 800 м
[Sc]
+11.7 +9.1 84 +12 +12 1007.8 978.7
15 16.06 Ю 1 50 км 9 баллов +9.6 +8.5 93 +9 +9 1009.2 980.0
18 16.06 ЮЗ 1 50 км 9 баллов +8.7 +7.5 92 +8 +8 1010.7 981.3
21 16.06 штиль 0 10 км 10/10 600 м
[St]
+9.1 +7.8 92 +8 +8 1010.5 981.1 +8.3
00 17.06 Ю 1 50 км 1/1 600 м
[Cu hum]
+15.2 +9.6 69 +16 +29 опасность
простуды
1009.5 980.7
03 17.06 СЗ 1 50 км 2 балла +21.6 +4.6 33 +22 +40 комфорт 1008.1 980.0
06 17.06 СВ 2 50 км 4 балла +22.8 +4.8 31 +23 +31 комфорт 1006.6 978.7
09 17.06 СЗ 1 50 км 8/4 600 м
[Cu hum As trans Ci fib]
+20.5 +8.8 47 +23 +24 комфорт 1006.8 978.7 +23.9
12 17.06 штиль 0 50 км 8/3 600 м
[Cu hum Ac trans]
+16.1 +8.5 61 +16 +16 1009.0 980.3
15 17.06 З 1 50 км 7 баллов +12.9 +8.8 76 +13 +13 1010.2 981.3
18 17.06 штиль 0 50 км 4 балла +8.5 +7.3 92 +8 +8 1010.7 981.3
21 17.06 штиль 0 50 км 9/0
[Ac trans Ci]
+7.9 +7.0 94 +7 +8 1010.4 980.8 +7.0
00 18.06 штиль 0 20 км в посл. час ливневой дождь 10/5 600 м
[Cb cap As op]
+10.9 +9.6 92 +10 +12 1009.9 980.7
03 18.06 Ю 1 50 км 7 баллов +17.7 +11.3 66 +19 +26 1008.4 980.0
06 18.06 Ю 1 10 км слаб. ливневой дождь 9 баллов +16.9 +14.9 88 +18 +19 1005.6 977.3
09 18.06 штиль 0 10 км в посл. час ливневой дождь 9 баллов +16.1 +14.5 90 +16 +16 1005.7 977.3 +20.9 2

 

Местоположение метеостанции Лазо (Приморский край, Россия): широта 43.40 долгота 133.80 высота над уровнем моря 245 м.

В архиве по умолчанию представлена погода в Лазо за последнюю неделю. Архивные данные за месяц целиком и за предыдущие месяцы, начиная с января 2011 года, Вы можете получить, выбрав интересующий диапазон дат из раскрывающегося списка и нажав кнопку "Ввод!".


*Определитесь, кто Вы:
робот инопланетянин человек

Внимание! Время в таблицах - всемирное. Для получения местного времени необходимо прибавить поправку, которая равна 10 ч.

Смотрите также архив погоды в соседних городах и на ближайших метеорологических станциях:

Погода в Лучегорске (Приморский край, Россия) (47 км)
Погода в Преображении (Приморский край, Россия) (56 км)
Погода в Партизанске (Приморский край, Россия) (71 км)
Погода в Чугуевке (Приморский край, Россия) (83 км)
Погода в Анучино (Приморский край, Россия) (90 км)
Погода в Находке (Приморский край, Россия) (105 км)
Погода в Многоудобном (Приморский край, Россия) (108 км)
Погода в Ольге (Приморский край, Россия) (127 км)
Погода в Кавалерово (Приморский край, Россия) (135 км)
Погода в Дальнегорске (Приморский край, Россия) (144 км)

Пояснения к столбцам:

Ветер - указаны скорость ветра в м/с - средняя за 10 мин, порывы в срок и между сроками (в фигурных скобках) и направление, откуда дует ветер: С - северный, СВ - северо-восточный, В - восточный, ЮВ - юго-восточный, Ю - южный, ЮЗ - юго-западный, З - западный, СЗ - северо-западный.
Видимость - горизонтальная дальность видимости в метрах или километрах. При видимости от 1 до 10 км при отсутствии осадков обычно наблюдается дымка, при ухудшении видимости до 1 км и менее - туман. В сухую погоду видимость может ухудшаться дымом, пылью или мглою.
Явления - указаны атмосферные явления, наблюдавшиеся в срок или в последний час перед сроком; фигурными скобками обозначены явления, наблюдавшиеся между сроками (за 1-3 часа до срока); квадратными скобками обозначены град или гололедные отложения с указанием их диаметра в мм.
Облачность - указаны через наклонную черту общая и нижняя облачность в баллах и высота нижней границы облаков в метрах; квадратными скобками обозначены формы облаков: Ci - перистые, Cs - перисто-слоистые, Cc - перисто-кучевые, Ac - высококучевые, As - высокослоистые, Sc - слоисто-кучевые, Ns - слоисто-дождевые, Cu - кучевые, Cb - кучево-дождевые. Подробнее классификацию облаков см. в Атласе облаков (PDF).
T - Температура воздуха - температура, измеренная на высоте 2 м над землей.
Td - Температура точки росы - температура, при понижении до которой содержащийся в воздухе водяной пар достигнет насыщения.
f - Относительная влажность воздуха - влажноcть воздуха, измеренная на высоте 2 м над землей.
Te - Эффективная температура - температура, которую ощущает одетый по сезону человек в тени. Характеристика душности погоды. При расчете учитывается влияние влажности воздуха и скорости ветра на теплоощущения человека.
Tes - Эффективная температура на солнце - температура, которую ощущает человек, с поправкой на солнечный нагрев. Характеристика знойности погоды. Зависит от высоты солнца над горизонтом, облачности и скорости ветра. Ночью, в пасмурную погоду, а также при ветре 12 м/с и более поправка равна нулю.
P - Атмосферное давление - приведенное к уровню моря атмосферное давление.
Po - Атмосферное давление - измеренное на уровне метеостанции атмосферное давление.
Tmin - Минимальная температура - минимум температуры воздуха на высоте 2 м над землей.
Tmax - Максимальная температура - максимум температуры воздуха на высоте 2 м над землей.
R - Количество осадков - Количество выпавших осадков за период времени, мм. При наведении курсора мыши на число - период времени, за который выпало указанное количество осадков.
R24 - Количество осадков - Количество выпавших осадков за 24 часа, мм.
S - Снежный покров - Высота снежного покрова, см. При наведении курсора мыши на число - состояние снежного покрова и степень покрытия местности в баллах.